Lapse_Rate
2.0 2.4 2.9 3.4 3.2 3.0 2.9 2.9 3.2 3.1 3.1 3.0 3.2 3.5 3.6 3.7 3.7 3.8 3.9 3.9 3.7 3.8 3.9 4.0 4.0 4.0 4.0 4.2 4.5 4.8 3.7 3.9
0.9 2.5 3.1 3.1 3.4 3.8 3.6 3.3 3.1 3.2 3.3 3.4 3.3 3.3 3.4 3.6 3.6 3.7 3.8 3.8 3.5 3.4 3.5 3.8 3.7 3.7 3.7 4.1 4.3 4.7 3.5 3.5
1.3 0.4 0.6 2.0 4.0 4.6 4.3 4.0 3.7 3.3 3.2 3.4 3.4 3.0 2.9 3.0 3.2 3.4 3.6 3.7 3.6 3.3 3.2 3.4 3.5 3.4 3.6 4.0 3.9 3.5 3.3 3.1
0.3 -0.3 -1.0 0.7 2.5 2.9 3.8 4.0 3.8 3.8 3.2 2.7 2.6 2.8 3.1 3.3 3.1 3.6 3.6 3.5 3.5 3.3 3.2 3.3 3.2 2.5 2.6 3.5 2.8 3.0 3.0 3.0
0.3 0.1 -0.7 -0.6 0.1 0.7 2.1 3.3 3.9 3.8 3.9 3.8 3.1 2.8 3.0 3.2 3.0 2.8 2.9 3.4 3.1 3.1 2.8 2.4 2.0 1.8 1.8 1.9 2.4 2.7 2.6 2.9
-1.0 -1.5 -0.9 -0.7 -0.6 -0.7 0.3 0.2 1.6 2.9 4.1 4.4 4.2 3.6 3.0 2.6 3.1 3.1 2.8 2.6 3.0 2.4 2.0 2.0 1.8 2.0 2.0 1.6 2.0 2.1 2.4 2.8
-2.3 -2.9 -3.3 -2.2 -2.4 -1.8 -1.6 -0.8 -0.2 0.5 2.6 4.2 4.4 4.5 4.2 3.1 3.1 2.8 3.4 3.6 3.1 2.7 2.1 1.8 1.7 1.8 2.0 2.0 2.1 2.2 2.5 2.7
-1.8 -3.3 -3.9 -3.1 -3.6 -3.6 -2.9 -1.9 -1.0 0.1 -0.1 0.7 1.7 4.5 4.9 4.3 4.1 3.5 3.3 3.5 3.8 2.7 2.4 2.4 2.2 2.0 2.1 2.3 2.4 2.8 2.7 2.5
-2.1 -2.2 -3.0 -3.1 -3.8 -3.8 -3.0 -2.9 -2.6 -2.0 -1.3 -0.3 1.5 1.0 1.2 4.2 4.6 4.5 4.2 3.6 3.3 3.2 3.1 2.8 2.8 2.6 2.6 2.7 3.1 2.9 3.1 2.4
-2.7 -2.9 -4.0 -3.7 -3.6 -3.5 -3.2 -2.9 -2.9 -2.6 -2.0 -1.5 -0.3 -0.3 1.6 1.8 1.7 4.8 5.3 4.3 3.6 3.1 3.3 3.6 3.5 3.3 3.3 3.3 3.7 3.0 3.1 3.2
-2.5 -3.2 -3.5 -3.6 -3.8 -3.8 -3.5 -3.5 -3.2 -2.9 -2.3 -1.9 -1.7 -1.1 0.2 1.0 1.4 1.4 2.5 4.7 4.6 4.2 3.8 3.4 3.6 3.7 3.5 2.9 3.7 3.9 3.2 3.7
-2.4 -2.3 -2.6 -2.4 -3.0 -3.0 -2.7 -3.0 -3.7 -2.8 -2.7 -1.7 -2.2 -1.8 -1.4 -0.8 0.7 1.7 1.8 2.6 4.4 4.7 4.1 3.9 4.1 3.4 3.3 3.2 2.7 3.5 3.7 3.5
-2.0 -1.7 -1.9 -2.1 -2.5 -2.5 -2.1 -2.2 -2.7 -2.7 -2.4 -2.3 -2.3 -1.7 -1.0 -1.0 -0.1 0.8 2.2 3.0 3.2 3.8 5.2 5.1 4.3 3.6 3.0 2.8 1.6 2.6 3.1 4.2
-0.4 -0.7 -0.8 -1.2 -1.7 -1.5 -2.1 -1.9 -2.1 -1.3 -1.6 -2.0 -1.9 -2.0 -1.4 0.2 -0.1 0.5 1.2 1.9 2.5 3.3 4.2 5.7 4.8 3.9 4.5 3.5 4.4 3.0 1.9 2.6
0.3 -0.1 -0.6 -1.1 -1.6 -1.6 -1.8 -1.6 -1.9 -2.6 -2.6 -1.7 -1.5 -1.3 -0.9 0.1 1.2 2.1 2.0 1.5 1.6 3.3 4.1 4.4 5.9 5.4 4.0 5.2 3.8 5.7 3.2 2.2
0.1 0.2 -0.1 0.4 -0.3 -0.8 -0.9 -0.3 0.1 0.2 0.4 0.0 -0.5 -0.5 -0.0 -0.0 1.1 2.7 3.2 2.4 1.9 2.1 2.7 4.3 6.1 6.1 5.2 5.1 4.7 3.4 3.6 4.1
-0.9 -0.3 0.2 -0.1 -0.2 0.2 0.3 0.3 1.1 1.1 1.0 0.8 1.1 0.7 0.4 1.6 2.3 2.3 3.1 4.6 4.3 3.7 3.1 3.3 4.5 5.9 6.0 5.1 5.5 4.6 4.1 4.4
0.0 0.1 0.9 0.9 1.2 1.5 1.5 1.4 1.8 2.6 2.7 2.2 1.8 2.3 2.7 2.2 3.2 3.1 3.6 5.2 5.5 5.3 4.0 3.8 3.9 4.9 6.0 5.8 5.5 5.0 5.3 5.9
1.6 1.3 1.9 1.6 1.4 1.6 1.5 1.4 2.0 3.2 5.2 5.0 3.8 4.3 4.2 3.9 3.6 3.6 3.7 5.3 5.6 5.2 4.8 4.1 4.1 5.3 5.7 5.3 5.2 5.3 5.1 4.6
1.3 1.3 1.8 1.8 2.0 1.7 1.4 1.8 1.9 2.6 3.3 3.8 4.2 5.7 5.6 5.5 5.4 4.2 4.2 5.9 5.5 5.2 4.8 4.0 5.1 5.8 6.2 6.0 5.8 4.2 5.6 5.1
Wind_Speed
14 15 15 9 3 4 5 6 6 7 8 11 12 12 12 12 12 11 11 11 11 9 10 11 11 11 11 11 11 10 9 10
18 20 16 14 15 13 6 4 5 6 7 9 12 14 14 14 14 13 13 12 12 11 12 12 11 11 12 12 12 10 7 11
18 19 21 21 14 13 14 13 8 5 6 8 8 9 13 15 16 16 15 14 14 13 14 14 13 13 13 13 12 9 7 9
14 14 18 20 18 20 15 13 13 12 8 7 6 7 10 10 13 17 17 17 16 16 15 16 15 12 12 14 11 11 9 10
14 12 16 17 15 15 15 16 12 9 12 11 7 7 8 9 9 11 12 15 9 12 11 11 10 10 9 10 12 11 11 11
12 15 13 16 13 13 14 12 16 15 10 11 9 6 5 5 6 8 9 10 10 9 7 9 9 11 11 8 11 10 11 12
12 13 12 14 12 13 13 12 14 16 19 16 11 8 6 4 6 8 8 10 10 7 6 6 7 8 10 8 8 10 11 11
12 14 14 15 10 12 9 12 15 14 15 18 24 16 8 7 7 7 7 13 13 10 7 7 7 7 8 8 7 10 11 11
13 14 17 14 12 13 12 12 13 11 14 18 19 23 21 14 7 7 8 13 13 10 7 6 6 5 9 7 7 8 10 11
9 12 13 13 14 14 12 13 13 13 14 17 19 21 20 15 12 10 11 10 9 9 9 9 8 8 8 9 8 7 9 11
12 14 14 12 13 14 13 12 12 12 16 15 20 19 20 16 9 11 20 7 8 9 9 10 9 9 10 8 9 9 9 9
14 12 14 12 10 11 8 6 10 14 14 15 20 18 21 17 11 11 13 10 11 9 12 10 10 11 9 9 9 10 8 9
13 11 10 8 7 7 5 8 8 8 12 19 18 19 21 17 8 11 11 10 12 12 11 14 10 9 7 7 5 9 10 10
10 10 10 7 7 5 3 7 4 8 12 15 17 21 20 16 12 11 12 10 13 13 11 11 10 10 9 4 5 6 7 9
7 7 10 10 11 8 8 4 6 6 11 11 14 22 20 18 16 14 13 13 12 14 13 14 13 11 16 8 3 9 4 5
4 8 10 10 11 9 10 7 10 8 10 11 12 21 19 20 18 12 12 11 14 14 12 14 12 15 8 13 10 4 4 3
5 9 9 9 10 9 7 10 8 9 9 15 15 15 20 21 20 15 13 10 13 16 18 16 14 14 14 6 13 9 5 3
7 9 7 7 6 8 8 9 11 11 13 12 12 11 12 15 19 16 16 13 14 14 17 20 16 16 16 12 9 5 4 8
7 7 8 8 6 7 9 10 10 11 12 12 15 13 11 15 19 17 15 17 17 16 17 19 18 16 17 11 9 8 9 13
7 7 8 8 8 8 8 9 8 10 12 11 11 11 13 18 15 17 18 17 17 15 13 15 17 16 20 14 11 10 15 14
Wind_Direction
17 1 343 324 246 209 208 213 237 226 202 184 179 177 178 184 192 197 197 195 185 179 177 177 179 183 190 193 206 206 179 191
22 13 3 353 344 330 302 264 249 259 258 222 197 188 191 197 200 204 204 201 197 192 190 191 194 194 199 200 210 227 212 198
30 27 20 9 3 344 330 316 293 259 256 264 253 223 203 203 208 209 209 210 208 204 200 200 203 203 205 211 211 225 207 197
27 26 25 19 16 5 359 340 324 304 261 231 230 270 255 225 217 219 217 214 214 213 210 207 208 209 207 212 219 220 206 195
26 23 25 25 17 10 9 359 339 316 306 285 240 240 248 256 249 228 222 227 223 222 220 215 212 210 210 202 220 226 214 209
29 25 26 28 23 16 6 6 359 347 309 293 280 266 249 227 241 251 229 210 216 209 211 219 224 222 223 202 215 218 214 209
30 22 25 23 26 14 9 5 354 341 347 321 281 273 255 230 234 222 235 234 223 216 215 214 217 225 231 221 216 222 222 213
23 28 25 23 18 10 5 1 349 350 352 343 347 317 277 255 234 227 222 220 228 213 207 218 224 217 229 229 221 223 219 217
31 25 15 21 15 7 359 358 355 353 345 352 347 356 350 323 263 247 230 217 214 217 229 215 219 216 229 230 224 219 224 214
39 32 27 17 4 357 353 353 355 351 353 347 3 351 348 336 337 308 258 225 220 219 215 223 227 220 222 228 233 214 212 217
36 34 23 14 3 350 343 350 357 351 352 349 353 347 351 348 329 324 330 284 229 226 226 221 223 224 224 221 224 233 217 209
32 27 19 12 4 354 343 345 352 356 351 355 348 348 347 341 330 323 326 319 313 237 233 224 225 222 223 221 214 226 226 214
24 19 14 17 9 358 343 345 334 343 344 345 344 347 341 337 337 325 321 314 307 302 269 232 234 221 216 235 233 225 226 222
19 14 10 18 11 352 330 320 319 322 338 338 342 341 336 334 332 323 318 305 306 303 296 283 238 220 215 222 229 225 222 226
22 11 15 18 2 353 352 328 331 340 345 340 337 334 330 332 326 324 327 320 313 304 294 288 283 237 218 211 192 237 177 212
12 20 19 11 360 357 355 339 339 333 329 328 328 327 327 324 319 320 320 315 309 301 297 300 288 275 226 226 228 148 193 186
12 17 14 5 2 355 345 335 331 331 330 327 330 329 324 324 324 320 314 306 304 298 296 288 277 278 262 209 213 212 198 198
21 12 355 353 337 341 339 331 331 331 333 332 329 322 323 323 318 315 310 305 301 296 290 282 277 271 269 235 218 213 198 243
11 359 349 348 335 338 342 339 332 323 322 329 327 324 324 320 321 313 311 305 301 295 292 285 280 266 270 235 214 225 233 227
357 347 332 331 334 333 336 343 342 335 329 328 324 323 318 318 314 310 304 305 302 312 300 291 275 266 258 238 213 207 218 225